Weather History for KMHT - July, 2014

Change the Weather History Date:

Monday, July 7, 2014

  Actual Average Record
Temperature  
Mean Temperature 78 °F -  
Max Temperature 88 °F 82 °F - ()
Min Temperature 68 °F 62 °F - ()
Degree Days  
Heating Degree Days 0    
Cooling Degree Days 12    
Growing Degree Days 28 (Base 50)    
Moisture  
Dew Point 64 °F    
Average Humidity 71    
Maximum Humidity 93    
Minimum Humidity 46    
Precipitation  
Precipitation 0.54 in 0.11 in - ()
Month to date precipitation 0.79  
Year to date precipitation 22.62  
Snow  
Snow 0.00 in - - ()
Month to date snowfall  
Since 1 July snowfall  
Snow Depth -    
Sea Level Pressure  
Sea Level Pressure 29.77 in    
Wind  
Wind Speed 7 mph (SSW)    
Max Wind Speed 16 mph    
Max Gust Speed 25 mph    
Visibility 10 miles    
Events Rain , Thunderstorm    
T = Trace of Precipitation, MM = Missing Value Source: NWS Daily Summary

Daily Weather History Graph

Daily Weather History Graph

Search for Another Location

Airport or City:

Trip Planner

Search our weather history database for the weather conditions in past years. The results will help you decide how hot, cold, wet, or windy it might be!

Date:

Astronomy

Jul. 07, 2014 Rise Set
Actual Time 5:14 AM EDT 8:26 PM EDT
Civil Twilight 4:39 AM EDT 9:01 PM EDT
Nautical Twilight 3:54 AM EDT 9:46 PM EDT
Astronomical Twilight 3:00 AM EDT 10:40 PM EDT
Moon 3:22 PM EDT (7/7) 1:10 AM EDT (7/7)
Length of Visible Light 16h 21m
Length of Day
15h 12m
Waxing Gibbous, 72% of the Moon is Illuminated
Jul 7
Waxing Gibbous
Jul 12
Full
Jul 18
Last Quarter
Jul 26
New
Aug 3
First Quarter

Hourly Weather History & Observations

Time (EDT) Temp. Heat Index Dew Point Humidity Pressure Visibility Wind Dir Wind Speed Gust Speed Precip Events Conditions
12:53 AM 70.0 °F - 57.0 °F 63% 29.87 in 10.0 mi South 6.9 mph - N/A   Overcast
1:53 AM 69.1 °F - 57.9 °F 68% 29.86 in 10.0 mi South 5.8 mph - N/A   Overcast
2:53 AM 68.0 °F - 59.0 °F 73% 29.86 in 10.0 mi South 4.6 mph - N/A   Overcast
3:53 AM 68.0 °F - 59.0 °F 73% 29.85 in 10.0 mi SSW 4.6 mph - N/A   Overcast
4:53 AM 68.0 °F - 59.0 °F 73% 29.85 in 10.0 mi South 4.6 mph - N/A   Mostly Cloudy
5:53 AM 69.1 °F - 59.0 °F 70% 29.84 in 10.0 mi South 8.1 mph - N/A   Mostly Cloudy
6:53 AM 69.1 °F - 59.0 °F 70% 29.85 in 10.0 mi South 5.8 mph - N/A   Mostly Cloudy
7:53 AM 69.1 °F - 61.0 °F 75% 29.85 in 10.0 mi South 6.9 mph - N/A   Mostly Cloudy
8:53 AM 73.0 °F - 62.1 °F 68% 29.83 in 10.0 mi South 10.4 mph - N/A   Mostly Cloudy
9:53 AM 77.0 °F - 62.1 °F 60% 29.81 in 10.0 mi SSW 6.9 mph - N/A   Mostly Cloudy
10:53 AM 80.1 °F 81.5 °F 63.0 °F 56% 29.79 in 10.0 mi SSW 10.4 mph - N/A   Mostly Cloudy
11:53 AM 82.0 °F 83.1 °F 63.0 °F 52% 29.77 in 10.0 mi South 10.4 mph - N/A   Mostly Cloudy
12:53 PM 84.9 °F 85.4 °F 62.1 °F 46% 29.75 in 10.0 mi SSW 10.4 mph - N/A   Mostly Cloudy
1:53 PM 84.0 °F 84.9 °F 63.0 °F 49% 29.73 in 10.0 mi SW 15.0 mph 23.0 mph N/A   Mostly Cloudy
2:53 PM 87.1 °F 88.3 °F 64.0 °F 46% 29.70 in 10.0 mi SSW 16.1 mph 21.9 mph N/A   Mostly Cloudy
3:53 PM 84.9 °F 86.6 °F 64.9 °F 51% 29.70 in 10.0 mi South 13.8 mph - N/A   Mostly Cloudy
4:17 PM 84.9 °F 86.6 °F 64.9 °F 51% 29.66 in 10.0 mi South 10.4 mph - N/A Thunderstorm Thunderstorm
4:53 PM 78.1 °F - 70.0 °F 76% 29.72 in 10.0 mi West 6.9 mph - 0.02 in Rain Light Rain
5:53 PM 75.9 °F - 70.0 °F 82% 29.71 in 10.0 mi SSE 9.2 mph - 0.00 in   Mostly Cloudy
6:53 PM 75.0 °F - 69.1 °F 82% 29.72 in 10.0 mi South 8.1 mph - N/A   Mostly Cloudy
7:53 PM 73.9 °F - 68.0 °F 82% 29.73 in 10.0 mi SSW 6.9 mph - N/A   Mostly Cloudy
8:53 PM 73.0 °F - 68.0 °F 84% 29.73 in 10.0 mi South 5.8 mph - N/A   Mostly Cloudy
8:56 PM 73.0 °F - 68.0 °F 84% 29.70 in 10.0 mi South 5.8 mph - N/A Thunderstorm Thunderstorm
9:15 PM 73.0 °F - 69.1 °F 87% 29.73 in 1.2 mi WSW 9.2 mph - 0.23 in Rain , Thunderstorm Heavy Thunderstorms and Rain
9:36 PM 72.0 °F - 68.0 °F 87% 29.76 in 3.0 mi WSW 8.1 mph 25.3 mph 0.48 in Rain , Thunderstorm Thunderstorms and Rain
9:53 PM 72.0 °F - 68.0 °F 87% 29.80 in 10.0 mi SSW 5.8 mph - 0.51 in Rain , Thunderstorm Light Thunderstorms and Rain
10:13 PM 72.0 °F - 68.0 °F 87% 29.75 in 10.0 mi South 5.8 mph - 0.01 in Rain Light Rain
10:53 PM 71.1 °F - 69.1 °F 93% 29.76 in 10.0 mi Calm Calm - 0.01 in   Overcast
11:53 PM 71.1 °F - 69.1 °F 93% 29.77 in 10.0 mi SSW 8.1 mph - N/A   Overcast